Volver al catálogo

JUNTIAN-1 04A

ActivoMilitarSSO
NORAD 68198·PAYLOAD·🇨🇳 China
Este nombre de satélite aún no ha sido confirmado por fuentes oficiales.

Lanzado Mar 16, 2026 desde Jiuquan Satellite Launch Center

Loading…

Próximos Pases (próximas 24 horas)

TLE

ActualizadoSource: Space-Track

Época: Sep 13, 2026, 22:45 UTC

1 68198U 26052A   26256.94859715  .00005307  00000-0  31354-3 0  9990
2 68198  97.5262 330.3939 0013006   9.5389 350.6085 15.11851617 27450

Sigue JUNTIAN-1 04A en tiempo real con AllMySat

Download on the App Store